Orbital Elements at Epoch 2459000.5 (2020-May-31.0) TDB
Reference: JPL 20 (heliocentric ecliptic J2000)
Element | Value | Uncertainty (1-sigma) | Units |
e | .267187988091069 | 4.1919e-08 | |
a | 2.734532164938656 | 1.9681e-08 | au |
q | 2.003898017418381 | 1.1919e-07 | au |
i | 9.905840165152252 | 6.3783e-06 | deg |
node | 55.37475967161576 | 3.4692e-05 | deg |
peri | 30.17964583486605 | 3.7692e-05 | deg |
M | 160.5369600021626 | 1.5079e-05 | deg |
tp | 2458263.961394826866 (2018-May-25.46139483) | 6.439e-05 | TDB |
period | 1651.668860919979 4.52 | 1.7831e-05 4.882e-08 | d yr |
n | .2179613653305058 | 2.3531e-09 | deg/d |
Q | 3.465166312458931 | 2.494e-08 | au |
|
| | Orbit Determination Parameters
Additional Information
|